Zurück zum Katalog

STARLINK-38184

AktivKommunikationSSO
NORAD 100180·PAYLOAD·🇺🇸 United States

Gestartet Aug 1, 2026 von Vandenberg Space Force Base

Loading…

Nächste Überflüge (nächste 24 Stunden)

TLE

AktuellSource: Space-Track

Epoche: Sep 14, 2026, 03:10 UTC

1 A0180U 26175B   26257.13209352  .00194287  00000-0  12742-2 0  9996
2 A0180  97.2829  99.2501 0002099  79.2173 280.9328 15.75187051  8171

Verfolge STARLINK-38184 in Echtzeit mit AllMySat

Download on the App Store